Time,TemperatureF,DewpointF,PressureIn,WindDirection,WindDirectionDegrees,WindSpeedMPH,WindSpeedGustMPH,Humidity,HourlyPrecipIn,Conditions,Clouds,dailyrainin,SoftwareType,DateUTC
2013-09-05 00:04:00,72.6,63.0,30.02,NNW,339,9.0,24.0,72,0.00,,,0.00,Weather View 32 v70,2013-09-05 10:04:00,
2013-09-05 00:09:00,72.5,62.9,30.02,NW,305,17.0,24.0,72,0.00,,,0.00,Weather View 32 v70,2013-09-05 10:09:00,
2013-09-05 00:14:00,72.4,63.2,30.02,North,349,20.0,24.0,73,0.00,,,0.00,Weather View 32 v70,2013-09-05 10:14:00,
2013-09-05 00:19:00,72.4,63.6,30.02,NNW,342,17.0,24.0,74,0.00,,,0.00,Weather View 32 v70,2013-09-05 10:19:00,
2013-09-05 00:24:00,72.3,63.5,30.02,NNW,346,13.0,24.0,74,0.00,,,0.00,Weather View 32 v70,2013-09-05 10:24:00,
2013-09-05 00:29:00,72.2,64.2,30.02,NNW,346,16.0,24.0,76,0.00,,,0.00,Weather View 32 v70,2013-09-05 10:29:00,
2013-09-05 00:34:00,72.2,64.6,30.02,WNW,303,16.0,24.0,77,0.00,,,0.00,Weather View 32 v70,2013-09-05 10:34:00,
2013-09-05 00:39:00,72.0,64.4,30.02,NNW,339,15.0,24.0,77,0.00,,,0.00,Weather View 32 v70,2013-09-05 10:39:00,
2013-09-05 00:44:00,72.0,64.4,30.01,NNE,12,11.0,24.0,77,0.00,,,0.00,Weather View 32 v70,2013-09-05 10:44:00,
2013-09-05 00:49:00,72.1,64.5,30.01,NNW,347,12.0,24.0,77,0.00,,,0.00,Weather View 32 v70,2013-09-05 10:49:00,
2013-09-05 01:01:00,72.3,63.9,30.02,NW,318,7.0,23.0,75,0.00,,,0.00,Weather View 32 v70,2013-09-05 11:01:00,
2013-09-05 01:06:00,72.2,64.2,30.01,NNW,329,15.0,23.0,76,0.00,,,0.00,Weather View 32 v70,2013-09-05 11:06:00,
2013-09-05 01:07:00,72.2,64.2,30.02,NW,315,13.0,23.0,76,0.00,,,0.00,Weather View 32 v70,2013-09-05 11:07:00,
2013-09-05 01:08:00,72.2,64.2,30.02,NNW,337,20.0,23.0,76,0.00,,,0.00,Weather View 32 v70,2013-09-05 11:08:00,
2013-09-05 01:09:00,72.2,64.6,30.01,NNW,343,12.0,23.0,77,0.00,,,0.00,Weather View 32 v70,2013-09-05 11:09:00,
2013-09-05 01:10:00,72.2,64.6,30.02,NNW,343,6.0,23.0,77,0.00,,,0.00,Weather View 32 v70,2013-09-05 11:10:00,
2013-09-05 01:11:00,72.1,64.5,30.02,North,355,6.0,23.0,77,0.00,,,0.00,Weather View 32 v70,2013-09-05 11:11:00,
2013-09-05 01:12:00,72.1,64.5,30.02,NNW,337,9.0,23.0,77,0.00,,,0.00,Weather View 32 v70,2013-09-05 11:12:00,
2013-09-05 01:13:00,72.1,64.5,30.02,NNW,335,11.0,23.0,77,0.00,,,0.00,Weather View 32 v70,2013-09-05 11:13:00,
2013-09-05 01:15:00,72.1,64.8,30.02,NW,318,11.0,23.0,78,0.00,,,0.00,Weather View 32 v70,2013-09-05 11:15:00,
2013-09-05 01:24:00,72.1,64.5,30.02,NW,322,13.0,23.0,77,0.00,,,0.00,Weather View 32 v70,2013-09-05 11:24:00,
2013-09-05 01:29:00,72.2,64.2,30.01,North,358,9.0,23.0,76,0.00,,,0.00,Weather View 32 v70,2013-09-05 11:29:00,
2013-09-05 01:34:00,72.2,64.6,30.02,North,353,5.0,23.0,77,0.00,,,0.00,Weather View 32 v70,2013-09-05 11:34:00,
2013-09-05 01:39:00,72.1,64.8,30.01,North,356,16.0,23.0,78,0.00,,,0.00,Weather View 32 v70,2013-09-05 11:39:00,
2013-09-05 01:44:00,72.0,64.7,30.02,North,353,15.0,23.0,78,0.00,,,0.00,Weather View 32 v70,2013-09-05 11:44:00,
2013-09-05 01:49:00,72.0,64.7,30.02,NW,323,8.0,23.0,78,0.00,,,0.00,Weather View 32 v70,2013-09-05 11:49:00,
2013-09-05 01:54:00,71.9,64.6,30.02,NNE,14,9.0,23.0,78,0.00,,,0.00,Weather View 32 v70,2013-09-05 11:54:00,
2013-09-05 01:59:00,72.0,64.7,30.01,NNW,339,17.0,23.0,78,0.00,,,0.00,Weather View 32 v70,2013-09-05 11:59:00,
2013-09-05 02:04:00,72.0,64.7,30.01,North,349,9.0,23.0,78,0.00,,,0.00,Weather View 32 v70,2013-09-05 12:04:00,
2013-09-05 02:09:00,71.9,64.6,30.01,WNW,303,9.0,23.0,78,0.00,,,0.00,Weather View 32 v70,2013-09-05 12:09:00,
2013-09-05 02:14:00,71.9,64.6,30.01,NW,326,12.0,23.0,78,0.00,,,0.00,Weather View 32 v70,2013-09-05 12:14:00,
2013-09-05 02:19:00,71.9,64.6,30.01,NNW,334,8.0,23.0,78,0.00,,,0.00,Weather View 32 v70,2013-09-05 12:19:00,
2013-09-05 02:24:00,72.0,64.0,30.00,NW,324,6.0,23.0,76,0.00,,,0.00,Weather View 32 v70,2013-09-05 12:24:00,
2013-09-05 02:29:00,72.3,63.5,30.00,NW,323,9.0,23.0,74,0.00,,,0.00,Weather View 32 v70,2013-09-05 12:29:00,
2013-09-05 02:34:00,72.4,64.0,30.00,North,1,13.0,22.0,75,0.00,,,0.00,Weather View 32 v70,2013-09-05 12:34:00,
2013-09-05 02:39:00,72.3,63.5,30.00,NNW,332,11.0,22.0,74,0.00,,,0.00,Weather View 32 v70,2013-09-05 12:39:00,
2013-09-05 02:44:00,72.3,63.5,30.01,North,358,13.0,22.0,74,0.00,,,0.00,Weather View 32 v70,2013-09-05 12:44:00,
2013-09-05 02:49:00,72.4,64.0,30.01,North,10,7.0,22.0,75,0.00,,,0.00,Weather View 32 v70,2013-09-05 12:49:00,
2013-09-05 02:54:00,72.1,64.5,30.01,North,355,11.0,22.0,77,0.00,,,0.00,Weather View 32 v70,2013-09-05 12:54:00,
2013-09-05 02:59:00,72.1,64.8,30.00,NW,325,6.0,22.0,78,0.00,,,0.00,Weather View 32 v70,2013-09-05 12:59:00,
2013-09-05 03:04:00,71.9,64.6,30.01,WNW,295,7.0,22.0,78,0.00,,,0.00,Weather View 32 v70,2013-09-05 13:04:00,
2013-09-05 03:09:00,71.8,64.5,30.00,NNW,337,12.0,22.0,78,0.00,,,0.00,Weather View 32 v70,2013-09-05 13:09:00,
2013-09-05 03:14:00,71.9,63.9,30.00,NNW,334,12.0,22.0,76,0.00,,,0.00,Weather View 32 v70,2013-09-05 13:14:00,
2013-09-05 03:19:00,72.1,64.1,30.00,NW,315,14.0,22.0,76,0.00,,,0.00,Weather View 32 v70,2013-09-05 13:19:00,
2013-09-05 03:24:00,72.2,63.8,30.01,NW,326,5.0,22.0,75,0.00,,,0.00,Weather View 32 v70,2013-09-05 13:24:00,
2013-09-05 03:29:00,72.2,63.8,30.01,NNE,16,6.0,22.0,75,0.00,,,0.00,Weather View 32 v70,2013-09-05 13:29:00,
2013-09-05 03:34:00,72.1,63.7,30.01,North,358,7.0,22.0,75,0.00,,,0.00,Weather View 32 v70,2013-09-05 13:34:00,
2013-09-05 03:39:00,72.0,63.6,30.01,NNW,327,5.0,19.0,75,0.00,,,0.00,Weather View 32 v70,2013-09-05 13:39:00,
2013-09-05 03:44:00,72.1,63.3,30.00,NE,36,4.0,19.0,74,0.00,,,0.00,Weather View 32 v70,2013-09-05 13:44:00,
2013-09-05 03:49:00,72.1,63.3,30.01,North,359,8.0,19.0,74,0.00,,,0.00,Weather View 32 v70,2013-09-05 13:49:00,
2013-09-05 03:54:00,72.1,62.9,30.01,NW,315,7.0,19.0,73,0.00,,,0.00,Weather View 32 v70,2013-09-05 13:54:00,
2013-09-05 03:59:00,72.1,63.3,30.01,NW,307,6.0,19.0,74,0.00,,,0.00,Weather View 32 v70,2013-09-05 13:59:00,
2013-09-05 04:04:00,72.1,63.3,30.01,NW,326,7.0,16.0,74,0.00,,,0.00,Weather View 32 v70,2013-09-05 14:04:00,
2013-09-05 04:09:00,72.0,63.2,30.01,NW,309,7.0,16.0,74,0.00,,,0.00,Weather View 32 v70,2013-09-05 14:09:00,
2013-09-05 04:14:00,72.0,63.2,30.01,North,351,5.0,16.0,74,0.00,,,0.00,Weather View 32 v70,2013-09-05 14:14:00,
2013-09-05 04:19:00,72.0,63.6,30.02,North,7,4.0,16.0,75,0.00,,,0.00,Weather View 32 v70,2013-09-05 14:19:00,
2013-09-05 04:24:00,71.9,63.5,30.01,NW,322,12.0,13.0,75,0.00,,,0.00,Weather View 32 v70,2013-09-05 14:24:00,
2013-09-05 04:29:00,72.2,63.4,30.01,NW,317,8.0,13.0,74,0.00,,,0.00,Weather View 32 v70,2013-09-05 14:29:00,
2013-09-05 04:34:00,72.3,63.1,30.01,WNW,303,10.0,15.0,73,0.00,,,0.00,Weather View 32 v70,2013-09-05 14:34:00,
2013-09-05 04:39:00,72.3,62.7,30.01,WNW,292,5.0,15.0,72,0.00,,,0.00,Weather View 32 v70,2013-09-05 14:39:00,
2013-09-05 04:44:00,72.3,62.3,30.01,NW,324,6.0,15.0,71,0.00,,,0.00,Weather View 32 v70,2013-09-05 14:44:00,
2013-09-05 04:49:00,72.4,62.4,30.01,NNW,344,11.0,15.0,71,0.00,,,0.00,Weather View 32 v70,2013-09-05 14:49:00,
2013-09-05 04:54:00,72.1,62.9,30.02,North,2,10.0,15.0,73,0.00,,,0.00,Weather View 32 v70,2013-09-05 14:54:00,
2013-09-05 04:59:00,71.9,63.5,30.02,North,360,9.0,16.0,75,0.00,,,0.00,Weather View 32 v70,2013-09-05 14:59:00,
2013-09-05 05:04:00,71.6,63.6,30.02,NNW,333,12.0,16.0,76,0.00,,,0.00,Weather View 32 v70,2013-09-05 15:04:00,
2013-09-05 05:09:00,71.6,64.0,30.02,NW,322,7.0,16.0,77,0.00,,,0.00,Weather View 32 v70,2013-09-05 15:09:00,
2013-09-05 05:14:00,71.6,63.6,30.01,NNE,21,15.0,18.0,76,0.00,,,0.00,Weather View 32 v70,2013-09-05 15:14:00,
2013-09-05 05:19:00,71.5,63.1,30.01,North,353,7.0,18.0,75,0.00,,,0.00,Weather View 32 v70,2013-09-05 15:19:00,
2013-09-05 05:24:00,71.4,63.0,30.01,NNW,347,7.0,18.0,75,0.00,,,0.00,Weather View 32 v70,2013-09-05 15:24:00,
2013-09-05 05:29:00,71.4,62.7,30.02,NNE,21,12.0,18.0,74,0.00,,,0.00,Weather View 32 v70,2013-09-05 15:29:00,
2013-09-05 05:34:00,71.6,62.8,30.01,NNE,28,9.0,20.0,74,0.00,,,0.00,Weather View 32 v70,2013-09-05 15:34:00,
2013-09-05 05:39:00,71.6,63.6,30.01,North,7,11.0,20.0,76,0.00,,,0.00,Weather View 32 v70,2013-09-05 15:39:00,
2013-09-05 05:44:00,71.4,63.4,30.02,NNE,20,7.0,20.0,76,0.00,,,0.00,Weather View 32 v70,2013-09-05 15:44:00,
2013-09-05 05:49:00,71.3,63.7,30.02,North,2,11.0,20.0,77,0.00,,,0.00,Weather View 32 v70,2013-09-05 15:49:00,
2013-09-05 05:54:00,71.4,63.8,30.01,North,4,8.0,20.0,77,0.00,,,0.00,Weather View 32 v70,2013-09-05 15:54:00,
2013-09-05 05:59:00,71.3,63.7,30.03,NNW,344,10.0,20.0,77,0.00,,,0.00,Weather View 32 v70,2013-09-05 15:59:00,
2013-09-05 06:04:00,71.4,63.8,30.03,NNW,331,8.0,20.0,77,0.00,,,0.00,Weather View 32 v70,2013-09-05 16:04:00,
2013-09-05 06:09:00,71.5,63.9,30.02,NNW,347,10.0,20.0,77,0.00,,,0.00,Weather View 32 v70,2013-09-05 16:09:00,
2013-09-05 06:14:00,71.6,63.6,30.03,NW,309,12.0,20.0,76,0.00,,,0.00,Weather View 32 v70,2013-09-05 16:14:00,
2013-09-05 06:19:00,71.6,63.2,30.03,WNW,297,12.0,20.0,75,0.00,,,0.00,Weather View 32 v70,2013-09-05 16:19:00,
2013-09-05 06:24:00,71.8,63.4,30.03,North,351,12.0,20.0,75,0.00,,,0.00,Weather View 32 v70,2013-09-05 16:24:00,
2013-09-05 06:29:00,71.9,63.5,30.03,NNW,345,15.0,20.0,75,0.00,,,0.00,Weather View 32 v70,2013-09-05 16:29:00,
2013-09-05 06:34:00,72.0,63.6,30.04,NNE,26,7.0,19.0,75,0.00,,,0.00,Weather View 32 v70,2013-09-05 16:34:00,
2013-09-05 06:39:00,72.0,63.6,30.04,North,11,11.0,19.0,75,0.00,,,0.00,Weather View 32 v70,2013-09-05 16:39:00,
2013-09-05 06:44:00,72.1,63.7,30.04,North,357,9.0,19.0,75,0.00,,,0.00,Weather View 32 v70,2013-09-05 16:44:00,
2013-09-05 06:49:00,72.2,63.8,30.03,North,355,8.0,19.0,75,0.00,,,0.00,Weather View 32 v70,2013-09-05 16:49:00,
2013-09-05 06:54:00,72.3,63.5,30.04,NNW,337,14.0,19.0,74,0.00,,,0.00,Weather View 32 v70,2013-09-05 16:54:00,
2013-09-05 06:59:00,72.3,63.5,30.04,North,9,6.0,19.0,74,0.00,,,0.00,Weather View 32 v70,2013-09-05 16:59:00,
2013-09-05 07:04:00,72.6,63.4,30.04,North,4,9.0,19.0,73,0.00,,,0.00,Weather View 32 v70,2013-09-05 17:04:00,
2013-09-05 07:09:00,72.6,63.0,30.04,North,1,12.0,19.0,72,0.00,,,0.00,Weather View 32 v70,2013-09-05 17:09:00,
2013-09-05 07:14:00,72.8,63.2,30.04,NNE,32,6.0,18.0,72,0.00,,,0.00,Weather View 32 v70,2013-09-05 17:14:00,
2013-09-05 07:19:00,73.2,63.6,30.04,NNE,24,10.0,18.0,72,0.00,,,0.00,Weather View 32 v70,2013-09-05 17:19:00,
2013-09-05 07:24:00,73.0,63.4,30.04,NNE,12,16.0,18.0,72,0.00,,,0.00,Weather View 32 v70,2013-09-05 17:24:00,
2013-09-05 07:29:00,73.1,63.1,30.04,NNE,20,12.0,17.0,71,0.00,,,0.00,Weather View 32 v70,2013-09-05 17:29:00,
2013-09-05 07:34:00,73.3,62.9,30.05,NNE,24,16.0,17.0,70,0.00,,,0.00,Weather View 32 v70,2013-09-05 17:34:00,
2013-09-05 07:39:00,73.5,63.1,30.04,NNE,31,12.0,17.0,70,0.00,,,0.00,Weather View 32 v70,2013-09-05 17:39:00,
2013-09-05 07:44:00,73.9,63.5,30.05,North,7,9.0,17.0,70,0.00,,,0.00,Weather View 32 v70,2013-09-05 17:44:00,
2013-09-05 07:49:00,74.3,63.0,30.04,NNE,29,7.0,17.0,68,0.00,,,0.00,Weather View 32 v70,2013-09-05 17:49:00,
2013-09-05 07:54:00,74.0,63.1,30.05,NE,37,4.0,18.0,69,0.00,,,0.00,Weather View 32 v70,2013-09-05 17:54:00,
2013-09-05 07:59:00,73.9,63.1,30.05,NNE,17,15.0,18.0,69,0.00,,,0.00,Weather View 32 v70,2013-09-05 17:59:00,
2013-09-05 08:04:00,74.1,63.2,30.05,North,357,12.0,18.0,69,0.00,,,0.00,Weather View 32 v70,2013-09-05 18:04:00,
2013-09-05 08:09:00,74.2,63.3,30.05,NNE,26,15.0,18.0,69,0.00,,,0.00,Weather View 32 v70,2013-09-05 18:09:00,
2013-09-05 08:14:00,74.5,63.2,30.04,NE,35,12.0,18.0,68,0.00,,,0.00,Weather View 32 v70,2013-09-05 18:14:00,
2013-09-05 08:19:00,74.0,63.1,30.05,North,3,7.0,19.0,69,0.00,,,0.00,Weather View 32 v70,2013-09-05 18:19:00,
2013-09-05 08:24:00,74.3,63.8,30.05,NNW,337,11.0,19.0,70,0.00,,,0.00,Weather View 32 v70,2013-09-05 18:24:00,
2013-09-05 08:29:00,74.6,64.5,30.05,NNE,14,11.0,19.0,71,0.00,,,0.00,Weather View 32 v70,2013-09-05 18:29:00,
2013-09-05 08:34:00,74.4,64.3,30.05,North,2,15.0,21.0,71,0.00,,,0.00,Weather View 32 v70,2013-09-05 18:34:00,
2013-09-05 08:39:00,74.5,64.0,30.04,NNE,18,20.0,23.0,70,0.00,,,0.00,Weather View 32 v70,2013-09-05 18:39:00,
2013-09-05 08:45:00,74.6,64.1,30.05,NNW,338,17.0,23.0,70,0.00,,,0.00,Weather View 32 v70,2013-09-05 18:45:00,
2013-09-05 08:50:00,74.8,63.9,30.03,NNE,12,20.0,23.0,69,0.00,,,0.00,Weather View 32 v70,2013-09-05 18:50:00,
2013-09-05 08:56:00,74.5,64.8,30.04,NNE,15,19.0,24.0,72,0.00,,,0.00,Weather View 32 v70,2013-09-05 18:56:00,
2013-09-05 09:00:00,74.2,65.3,30.04,NNE,17,20.0,24.0,74,0.00,,,0.00,Weather View 32 v70,2013-09-05 19:00:00,
2013-09-05 09:02:00,74.2,64.6,30.04,North,3,17.0,24.0,72,0.00,,,0.00,Weather View 32 v70,2013-09-05 19:02:00,
2013-09-05 09:05:00,74.4,65.1,30.04,NNE,16,23.0,24.0,73,0.00,,,0.00,Weather View 32 v70,2013-09-05 19:05:00,
2013-09-05 09:08:00,74.4,64.7,30.04,NNE,14,21.0,24.0,72,0.00,,,0.00,Weather View 32 v70,2013-09-05 19:08:00,
2013-09-05 09:13:00,74.1,64.5,30.04,NNE,20,18.0,25.0,72,0.00,,,0.00,Weather View 32 v70,2013-09-05 19:13:00,
2013-09-05 09:18:00,74.6,64.9,30.05,NNE,15,21.0,25.0,72,0.00,,,0.00,Weather View 32 v70,2013-09-05 19:18:00,
2013-09-05 09:20:00,74.4,64.7,30.05,North,349,14.0,25.0,72,0.00,,,0.00,Weather View 32 v70,2013-09-05 19:20:00,
2013-09-05 09:23:00,74.4,63.9,30.04,NNE,14,17.0,25.0,70,0.00,,,0.00,Weather View 32 v70,2013-09-05 19:23:00,
2013-09-05 09:29:00,74.5,64.0,30.05,NNE,25,22.0,25.0,70,0.00,,,0.00,Weather View 32 v70,2013-09-05 19:29:00,
2013-09-05 09:34:00,74.6,63.3,30.05,North,353,15.0,26.0,68,0.00,,,0.00,Weather View 32 v70,2013-09-05 19:34:00,
2013-09-05 09:40:00,74.7,64.2,30.05,North,8,15.0,26.0,70,0.00,,,0.00,Weather View 32 v70,2013-09-05 19:40:00,
2013-09-05 09:45:00,75.1,63.4,30.05,NNE,15,14.0,26.0,67,0.00,,,0.00,Weather View 32 v70,2013-09-05 19:45:00,
2013-09-05 09:51:00,74.9,63.6,30.05,NNE,14,13.0,26.0,68,0.00,,,0.00,Weather View 32 v70,2013-09-05 19:51:00,
2013-09-05 09:56:00,75.2,64.7,30.05,NNE,19,15.0,26.0,70,0.00,,,0.00,Weather View 32 v70,2013-09-05 19:56:00,
2013-09-05 10:01:00,75.0,65.3,30.05,NNE,26,14.0,26.0,72,0.00,,,0.00,Weather View 32 v70,2013-09-05 20:01:00,
2013-09-05 10:06:00,75.1,65.4,30.05,NNE,18,13.0,26.0,72,0.00,,,0.00,Weather View 32 v70,2013-09-05 20:06:00,
2013-09-05 10:11:00,75.0,65.7,30.05,NNE,22,12.0,26.0,73,0.00,,,0.00,Weather View 32 v70,2013-09-05 20:11:00,
2013-09-05 10:19:00,74.9,65.6,30.05,North,2,15.0,26.0,73,0.00,,,0.00,Weather View 32 v70,2013-09-05 20:19:00,
2013-09-05 10:24:00,75.5,65.0,30.05,NNE,19,12.0,26.0,70,0.00,,,0.00,Weather View 32 v70,2013-09-05 20:24:00,
2013-09-05 10:29:00,75.8,65.3,30.05,NNE,15,9.0,26.0,70,0.00,,,0.00,Weather View 32 v70,2013-09-05 20:29:00,
2013-09-05 10:35:00,76.3,65.3,30.05,NE,36,15.0,22.0,69,0.00,,,0.00,Weather View 32 v70,2013-09-05 20:35:00,
2013-09-05 10:40:00,76.1,64.3,30.05,NNE,16,11.0,22.0,67,0.00,,,0.00,Weather View 32 v70,2013-09-05 20:40:00,
2013-09-05 10:46:00,76.0,65.1,30.05,NNE,14,11.0,22.0,69,0.00,,,0.00,Weather View 32 v70,2013-09-05 20:46:00,
2013-09-05 10:51:00,76.3,65.8,30.04,NNE,25,10.0,22.0,70,0.00,,,0.00,Weather View 32 v70,2013-09-05 20:51:00,
2013-09-05 10:56:00,75.9,65.0,30.05,North,4,13.0,22.0,69,0.00,,,0.00,Weather View 32 v70,2013-09-05 20:56:00,
2013-09-05 11:02:00,76.1,65.2,30.05,NE,46,6.0,22.0,69,0.00,,,0.00,Weather View 32 v70,2013-09-05 21:02:00,
2013-09-05 11:07:00,76.8,64.1,30.05,NE,45,10.0,22.0,65,0.00,,,0.00,Weather View 32 v70,2013-09-05 21:07:00,
2013-09-05 11:12:00,76.7,65.3,30.05,NNE,26,13.0,21.0,68,0.00,,,0.00,Weather View 32 v70,2013-09-05 21:12:00,
2013-09-05 11:19:00,76.7,66.1,30.05,NNE,28,15.0,20.0,70,0.00,,,0.00,Weather View 32 v70,2013-09-05 21:19:00,
2013-09-05 11:20:00,76.8,66.2,30.05,NE,35,13.0,20.0,70,0.00,,,0.00,Weather View 32 v70,2013-09-05 21:20:00,
2013-09-05 11:25:00,76.9,66.3,30.05,NNE,15,14.0,20.0,70,0.00,,,0.00,Weather View 32 v70,2013-09-05 21:25:00,
2013-09-05 11:26:00,76.9,66.3,30.05,NNE,31,14.0,20.0,70,0.00,,,0.00,Weather View 32 v70,2013-09-05 21:26:00,
2013-09-05 11:31:00,76.7,65.7,30.05,NNE,26,12.0,20.0,69,0.00,,,0.00,Weather View 32 v70,2013-09-05 21:31:00,
2013-09-05 11:36:00,76.8,65.8,30.04,North,357,13.0,20.0,69,0.00,,,0.00,Weather View 32 v70,2013-09-05 21:36:00,
2013-09-05 11:40:00,76.8,65.4,30.04,NE,35,15.0,20.0,68,0.00,,,0.00,Weather View 32 v70,2013-09-05 21:40:00,
2013-09-05 11:41:00,76.9,65.1,30.04,NNE,21,18.0,22.0,67,0.00,,,0.00,Weather View 32 v70,2013-09-05 21:41:00,
2013-09-05 11:45:00,76.2,64.8,30.04,North,6,17.0,22.0,68,0.00,,,0.00,Weather View 32 v70,2013-09-05 21:45:00,
2013-09-05 11:47:00,76.2,65.7,30.04,North,11,15.0,23.0,70,0.00,,,0.00,Weather View 32 v70,2013-09-05 21:47:00,
2013-09-05 11:50:00,76.2,65.2,30.03,NNE,14,18.0,23.0,69,0.00,,,0.00,Weather View 32 v70,2013-09-05 21:50:00,
2013-09-05 11:52:00,76.4,65.0,30.03,NE,53,13.0,23.0,68,0.00,,,0.00,Weather View 32 v70,2013-09-05 21:52:00,
2013-09-05 11:59:00,76.0,64.6,30.04,NNE,16,17.0,24.0,68,0.00,,,0.00,Weather View 32 v70,2013-09-05 21:59:00,
2013-09-05 12:04:00,76.4,65.0,30.04,NE,39,18.0,24.0,68,0.00,,,0.00,Weather View 32 v70,2013-09-05 22:04:00,
2013-09-05 12:10:00,76.2,65.7,30.03,NNE,15,19.0,25.0,70,0.00,,,0.00,Weather View 32 v70,2013-09-05 22:10:00,
2013-09-05 12:17:00,75.7,66.8,30.04,NNE,17,19.0,25.0,74,0.00,,,0.00,Weather View 32 v70,2013-09-05 22:17:00,
2013-09-05 12:20:00,75.7,66.4,30.03,NNE,18,20.0,25.0,73,0.00,,,0.00,Weather View 32 v70,2013-09-05 22:20:00,
2013-09-05 12:23:00,75.7,67.6,30.04,NNE,20,17.0,25.0,76,0.00,,,0.00,Weather View 32 v70,2013-09-05 22:23:00,
2013-09-05 12:25:00,75.5,67.0,30.02,NNE,29,21.0,25.0,75,0.00,,,0.00,Weather View 32 v70,2013-09-05 22:25:00,
2013-09-05 12:28:00,75.1,66.6,30.03,NNE,13,18.0,25.0,75,0.00,,,0.00,Weather View 32 v70,2013-09-05 22:28:00,
2013-09-05 12:30:00,75.2,67.1,30.04,North,356,20.0,25.0,76,0.00,,,0.00,Weather View 32 v70,2013-09-05 22:30:00,
2013-09-05 12:35:00,75.7,66.8,30.03,NW,312,16.0,29.0,74,0.00,,,0.00,Weather View 32 v70,2013-09-05 22:35:00,
2013-09-05 12:40:00,75.6,67.1,30.02,NNE,29,20.0,29.0,75,0.00,,,0.00,Weather View 32 v70,2013-09-05 22:40:00,
2013-09-05 12:45:00,75.5,66.6,30.02,NNE,26,18.0,29.0,74,0.00,,,0.00,Weather View 32 v70,2013-09-05 22:45:00,
2013-09-05 12:51:00,75.5,67.0,30.03,NNE,24,10.0,29.0,75,0.00,,,0.00,Weather View 32 v70,2013-09-05 22:51:00,
2013-09-05 12:57:00,75.5,66.2,30.03,North,10,15.0,29.0,73,0.00,,,0.00,Weather View 32 v70,2013-09-05 22:57:00,
2013-09-05 13:04:00,75.8,66.5,30.02,NNE,30,13.0,29.0,73,0.00,,,0.00,Weather View 32 v70,2013-09-05 23:04:00,
2013-09-05 13:10:00,75.7,66.4,30.04,North,358,13.0,29.0,73,0.00,,,0.00,Weather View 32 v70,2013-09-05 23:10:00,
2013-09-05 13:16:00,75.5,67.0,30.01,North,358,19.0,29.0,75,0.00,,,0.00,Weather View 32 v70,2013-09-05 23:16:00,
2013-09-05 13:22:00,74.9,66.4,30.03,NNE,31,18.0,29.0,75,0.00,,,0.00,Weather View 32 v70,2013-09-05 23:22:00,
2013-09-05 13:28:00,74.7,67.0,30.02,NNE,16,17.0,29.0,77,0.00,,,0.00,Weather View 32 v70,2013-09-05 23:28:00,
2013-09-05 13:30:00,74.7,67.0,30.03,North,351,16.0,29.0,77,0.00,,,0.00,Weather View 32 v70,2013-09-05 23:30:00,
2013-09-05 13:33:00,74.9,67.2,30.03,NNW,347,14.0,29.0,77,0.00,,,0.00,Weather View 32 v70,2013-09-05 23:33:00,
2013-09-05 13:35:00,75.1,67.4,30.02,NNE,18,18.0,27.0,77,0.00,,,0.00,Weather View 32 v70,2013-09-05 23:35:00,
2013-09-05 13:38:00,74.7,67.0,30.03,North,350,17.0,27.0,77,0.00,,,0.00,Weather View 32 v70,2013-09-05 23:38:00,
2013-09-05 13:40:00,74.4,66.7,30.02,NNW,338,19.0,27.0,77,0.00,,,0.00,Weather View 32 v70,2013-09-05 23:40:00,
2013-09-05 13:43:00,74.3,67.0,30.02,North,354,18.0,27.0,78,0.00,,,0.00,Weather View 32 v70,2013-09-05 23:43:00,
2013-09-05 13:45:00,74.3,67.3,30.02,NNE,22,17.0,27.0,79,0.00,,,0.00,Weather View 32 v70,2013-09-05 23:45:00,
2013-09-05 13:49:00,74.3,67.3,30.03,North,9,19.0,27.0,79,0.00,,,0.00,Weather View 32 v70,2013-09-05 23:49:00,
2013-09-05 13:55:00,74.4,67.4,30.02,North,6,14.0,27.0,79,0.00,,,0.00,Weather View 32 v70,2013-09-05 23:55:00,
2013-09-05 14:01:00,74.4,66.7,30.01,NNE,16,17.0,27.0,77,0.00,,,0.00,Weather View 32 v70,2013-09-06 00:01:00,
2013-09-05 14:06:00,74.3,66.6,30.02,NE,37,19.0,27.0,77,0.00,,,0.00,Weather View 32 v70,2013-09-06 00:06:00,
2013-09-05 14:11:00,74.4,65.9,30.02,North,354,17.0,27.0,75,0.00,,,0.00,Weather View 32 v70,2013-09-06 00:11:00,
2013-09-05 14:17:00,74.5,66.0,30.02,North,1,18.0,27.0,75,0.00,,,0.00,Weather View 32 v70,2013-09-06 00:17:00,
2013-09-05 14:22:00,74.7,66.6,30.02,NNE,33,17.0,27.0,76,0.00,,,0.00,Weather View 32 v70,2013-09-06 00:22:00,
2013-09-05 14:30:00,75.0,66.9,30.01,North,357,22.0,27.0,76,0.00,,,0.00,Weather View 32 v70,2013-09-06 00:30:00,
2013-09-05 14:35:00,75.5,66.6,30.01,North,8,20.0,27.0,74,0.00,,,0.00,Weather View 32 v70,2013-09-06 00:35:00,
2013-09-05 14:44:00,75.8,66.1,30.01,North,6,17.0,25.0,72,0.00,,,0.00,Weather View 32 v70,2013-09-06 00:44:00,
2013-09-05 14:49:00,76.0,66.7,30.00,North,4,23.0,25.0,73,0.00,,,0.00,Weather View 32 v70,2013-09-06 00:49:00,
2013-09-05 14:55:00,75.3,66.4,30.00,NNE,19,15.0,26.0,74,0.00,,,0.00,Weather View 32 v70,2013-09-06 00:55:00,
2013-09-05 15:00:00,75.6,66.3,30.01,North,2,18.0,26.0,73,0.00,,,0.00,Weather View 32 v70,2013-09-06 01:00:00,
2013-09-05 15:06:00,75.7,66.0,30.00,North,3,20.0,26.0,72,0.00,,,0.00,Weather View 32 v70,2013-09-06 01:06:00,
2013-09-05 15:11:00,75.5,66.6,30.02,NNE,18,11.0,26.0,74,0.00,,,0.00,Weather View 32 v70,2013-09-06 01:11:00,
2013-09-05 15:19:00,75.4,66.5,30.00,NNE,23,15.0,26.0,74,0.00,,,0.00,Weather View 32 v70,2013-09-06 01:19:00,
2013-09-05 15:25:00,75.4,65.3,30.01,NNE,28,18.0,26.0,71,0.00,,,0.00,Weather View 32 v70,2013-09-06 01:25:00,
2013-09-05 15:31:00,75.4,65.3,30.00,North,8,21.0,26.0,71,0.00,,,0.00,Weather View 32 v70,2013-09-06 01:31:00,
2013-09-05 15:35:00,75.4,65.7,30.00,North,3,20.0,26.0,72,0.00,,,0.00,Weather View 32 v70,2013-09-06 01:35:00,
2013-09-05 15:36:00,75.4,65.7,30.02,North,5,18.0,26.0,72,0.00,,,0.00,Weather View 32 v70,2013-09-06 01:36:00,
2013-09-05 15:40:00,75.5,65.8,30.00,NNE,17,18.0,26.0,72,0.00,,,0.00,Weather View 32 v70,2013-09-06 01:40:00,
2013-09-05 15:45:00,75.1,65.4,30.01,NW,322,14.0,26.0,72,0.00,,,0.00,Weather View 32 v70,2013-09-06 01:45:00,
2013-09-05 15:52:00,75.0,65.3,30.01,North,360,15.0,26.0,72,0.00,,,0.00,Weather View 32 v70,2013-09-06 01:52:00,
2013-09-05 15:57:00,75.0,64.9,30.01,NNW,342,17.0,25.0,71,0.00,,,0.00,Weather View 32 v70,2013-09-06 01:57:00,
2013-09-05 16:02:00,75.2,65.9,30.01,NNE,31,17.0,25.0,73,0.00,,,0.00,Weather View 32 v70,2013-09-06 02:02:00,
2013-09-05 16:07:00,75.5,65.0,30.01,NNE,15,19.0,23.0,70,0.00,,,0.00,Weather View 32 v70,2013-09-06 02:07:00,
2013-09-05 16:12:00,75.7,63.5,30.01,North,7,17.0,23.0,66,0.00,,,0.00,Weather View 32 v70,2013-09-06 02:12:00,
2013-09-05 16:17:00,76.0,63.3,30.01,North,350,14.0,23.0,65,0.00,,,0.00,Weather View 32 v70,2013-09-06 02:17:00,
2013-09-05 16:22:00,76.1,65.2,30.00,NNE,17,18.0,23.0,69,0.00,,,0.00,Weather View 32 v70,2013-09-06 02:22:00,
2013-09-05 16:27:00,75.8,66.5,30.01,North,4,20.0,23.0,73,0.00,,,0.00,Weather View 32 v70,2013-09-06 02:27:00,
2013-09-05 16:32:00,75.3,66.0,30.01,NNE,29,16.0,23.0,73,0.00,,,0.00,Weather View 32 v70,2013-09-06 02:32:00,
2013-09-05 16:37:00,75.6,65.1,30.01,NNE,17,11.0,23.0,70,0.00,,,0.00,Weather View 32 v70,2013-09-06 02:37:00,
2013-09-05 16:42:00,75.9,65.4,30.01,North,355,14.0,22.0,70,0.00,,,0.00,Weather View 32 v70,2013-09-06 02:42:00,
2013-09-05 16:47:00,76.0,67.1,30.01,NNE,18,17.0,22.0,74,0.00,,,0.00,Weather View 32 v70,2013-09-06 02:47:00,
2013-09-05 16:52:00,75.4,65.7,30.01,North,5,16.0,22.0,72,0.00,,,0.00,Weather View 32 v70,2013-09-06 02:52:00,
2013-09-05 16:57:00,75.5,66.2,30.02,North,6,17.0,22.0,73,0.00,,,0.00,Weather View 32 v70,2013-09-06 02:57:00,
2013-09-05 17:02:00,75.2,65.5,30.02,NNW,345,12.0,22.0,72,0.00,,,0.00,Weather View 32 v70,2013-09-06 03:02:00,
2013-09-05 17:07:00,75.0,66.9,30.02,NNE,17,13.0,22.0,76,0.00,,,0.00,Weather View 32 v70,2013-09-06 03:07:00,
2013-09-05 17:12:00,74.5,66.8,30.02,NNW,347,18.0,22.0,77,0.00,,,0.00,Weather View 32 v70,2013-09-06 03:12:00,
2013-09-05 17:17:00,74.4,65.9,30.02,NNE,21,11.0,22.0,75,0.00,,,0.00,Weather View 32 v70,2013-09-06 03:17:00,
2013-09-05 17:22:00,74.4,66.3,30.02,North,1,13.0,22.0,76,0.00,,,0.00,Weather View 32 v70,2013-09-06 03:22:00,
2013-09-05 17:27:00,74.3,66.2,30.02,North,10,19.0,22.0,76,0.00,,,0.00,Weather View 32 v70,2013-09-06 03:27:00,
2013-09-05 17:32:00,74.0,65.2,30.02,North,351,14.0,22.0,74,0.00,,,0.00,Weather View 32 v70,2013-09-06 03:32:00,
2013-09-05 17:37:00,74.0,66.7,30.02,North,4,17.0,22.0,78,0.00,,,0.00,Weather View 32 v70,2013-09-06 03:37:00,
2013-09-05 17:42:00,74.1,66.0,30.03,NNE,21,13.0,22.0,76,0.00,,,0.00,Weather View 32 v70,2013-09-06 03:42:00,
2013-09-05 17:47:00,73.9,65.8,30.03,North,5,13.0,22.0,76,0.00,,,0.00,Weather View 32 v70,2013-09-06 03:47:00,
2013-09-05 17:52:00,73.7,66.4,30.03,North,11,18.0,22.0,78,0.00,,,0.00,Weather View 32 v70,2013-09-06 03:52:00,
2013-09-05 17:57:00,73.5,66.2,30.03,North,6,15.0,22.0,78,0.00,,,0.00,Weather View 32 v70,2013-09-06 03:57:00,
2013-09-05 18:01:00,73.4,66.1,30.03,North,7,19.0,22.0,78,0.00,,,0.00,Weather View 32 v70,2013-09-06 04:01:00,
2013-09-05 18:06:00,73.2,65.9,30.03,NNE,33,14.0,22.0,78,0.00,,,0.00,Weather View 32 v70,2013-09-06 04:06:00,
2013-09-05 18:11:00,73.1,65.8,30.04,North,5,17.0,22.0,78,0.00,,,0.00,Weather View 32 v70,2013-09-06 04:11:00,
2013-09-05 18:16:00,73.3,64.5,30.04,North,352,11.0,21.0,74,0.00,,,0.00,Weather View 32 v70,2013-09-06 04:16:00,
2013-09-05 18:21:00,73.3,64.9,30.04,NNW,332,11.0,21.0,75,0.00,,,0.00,Weather View 32 v70,2013-09-06 04:21:00,
2013-09-05 18:26:00,73.2,64.0,30.04,NNW,342,10.0,21.0,73,0.00,,,0.00,Weather View 32 v70,2013-09-06 04:26:00,
2013-09-05 18:31:00,73.4,62.6,30.05,NNW,345,17.0,21.0,69,0.00,,,0.00,Weather View 32 v70,2013-09-06 04:31:00,
2013-09-05 18:36:00,73.6,61.1,30.05,NNE,17,9.0,21.0,65,0.00,,,0.00,Weather View 32 v70,2013-09-06 04:36:00,
2013-09-05 18:41:00,73.9,60.9,30.05,NNW,344,17.0,21.0,64,0.00,,,0.00,Weather View 32 v70,2013-09-06 04:41:00,
2013-09-05 18:46:00,73.9,60.9,30.05,North,1,8.0,21.0,64,0.00,,,0.00,Weather View 32 v70,2013-09-06 04:46:00,
2013-09-05 18:51:00,74.0,60.1,30.05,NNW,339,9.0,21.0,62,0.00,,,0.00,Weather View 32 v70,2013-09-06 04:51:00,
2013-09-05 18:56:00,74.0,60.6,30.05,North,353,13.0,21.0,63,0.00,,,0.00,Weather View 32 v70,2013-09-06 04:56:00,
2013-09-05 19:01:00,74.0,60.6,30.06,North,353,5.0,21.0,63,0.00,,,0.00,Weather View 32 v70,2013-09-06 05:01:00,
2013-09-05 19:06:00,73.9,60.5,30.06,NNW,341,11.0,21.0,63,0.00,,,0.00,Weather View 32 v70,2013-09-06 05:06:00,
2013-09-05 19:11:00,73.8,62.1,30.05,NNW,346,8.0,21.0,67,0.00,,,0.00,Weather View 32 v70,2013-09-06 05:11:00,
2013-09-05 19:16:00,73.9,63.1,30.06,NNW,332,13.0,21.0,69,0.00,,,0.00,Weather View 32 v70,2013-09-06 05:16:00,
2013-09-05 19:21:00,73.7,62.4,30.06,NNW,345,13.0,21.0,68,0.00,,,0.00,Weather View 32 v70,2013-09-06 05:21:00,
2013-09-05 19:26:00,73.7,62.0,30.07,North,4,7.0,21.0,67,0.00,,,0.00,Weather View 32 v70,2013-09-06 05:26:00,
2013-09-05 19:31:00,73.7,63.3,30.06,North,351,12.0,21.0,70,0.00,,,0.00,Weather View 32 v70,2013-09-06 05:31:00,
2013-09-05 19:36:00,73.4,63.8,30.07,North,11,7.0,21.0,72,0.00,,,0.00,Weather View 32 v70,2013-09-06 05:36:00,
2013-09-05 19:41:00,73.4,63.0,30.07,NNE,18,14.0,21.0,70,0.00,,,0.00,Weather View 32 v70,2013-09-06 05:41:00,
2013-09-05 19:46:00,73.3,63.3,30.07,North,9,6.0,21.0,71,0.00,,,0.00,Weather View 32 v70,2013-09-06 05:46:00,
2013-09-05 19:51:00,73.1,63.9,30.07,NW,326,14.0,21.0,73,0.00,,,0.00,Weather View 32 v70,2013-09-06 05:51:00,
2013-09-05 19:56:00,73.0,63.8,30.07,North,351,13.0,21.0,73,0.00,,,0.00,Weather View 32 v70,2013-09-06 05:56:00,
2013-09-05 20:01:00,73.0,63.4,30.08,NW,313,5.0,21.0,72,0.00,,,0.00,Weather View 32 v70,2013-09-06 06:01:00,
2013-09-05 20:07:00,73.0,62.6,30.08,North,2,13.0,21.0,70,0.00,,,0.00,Weather View 32 v70,2013-09-06 06:07:00,
2013-09-05 20:12:00,73.0,63.4,30.08,NW,325,13.0,20.0,72,0.00,,,0.00,Weather View 32 v70,2013-09-06 06:12:00,
2013-09-05 20:17:00,73.0,62.6,30.09,NNW,347,8.0,20.0,70,0.00,,,0.00,Weather View 32 v70,2013-09-06 06:17:00,
2013-09-05 20:22:00,73.3,62.9,30.08,North,351,15.0,20.0,70,0.00,,,0.00,Weather View 32 v70,2013-09-06 06:22:00,
2013-09-05 20:27:00,73.5,62.7,30.09,NNW,328,17.0,20.0,69,0.00,,,0.00,Weather View 32 v70,2013-09-06 06:27:00,
2013-09-05 20:32:00,73.6,61.5,30.09,NW,326,11.0,21.0,66,0.00,,,0.00,Weather View 32 v70,2013-09-06 06:32:00,
2013-09-05 20:37:00,73.7,63.7,30.09,NNW,347,11.0,25.0,71,0.00,,,0.00,Weather View 32 v70,2013-09-06 06:37:00,
2013-09-05 20:42:00,73.5,61.8,30.09,NW,323,13.0,25.0,67,0.00,,,0.00,Weather View 32 v70,2013-09-06 06:42:00,
2013-09-05 20:47:00,73.7,62.0,30.09,NNW,333,7.0,25.0,67,0.00,,,0.00,Weather View 32 v70,2013-09-06 06:47:00,
2013-09-05 20:52:00,73.9,63.1,30.09,WNW,302,5.0,25.0,69,0.00,,,0.00,Weather View 32 v70,2013-09-06 06:52:00,
2013-09-05 20:57:00,73.8,62.5,30.10,NW,317,13.0,25.0,68,0.00,,,0.00,Weather View 32 v70,2013-09-06 06:57:00,
2013-09-05 21:02:00,74.2,61.2,30.10,North,9,11.0,25.0,64,0.00,,,0.00,Weather View 32 v70,2013-09-06 07:02:00,
2013-09-05 21:07:00,74.2,61.2,30.10,North,355,5.0,25.0,64,0.00,,,0.00,Weather View 32 v70,2013-09-06 07:07:00,
2013-09-05 21:12:00,74.3,61.3,30.10,NNW,339,5.0,25.0,64,0.00,,,0.00,Weather View 32 v70,2013-09-06 07:12:00,
2013-09-05 21:17:00,74.1,62.4,30.10,NNE,28,14.0,25.0,67,0.00,,,0.00,Weather View 32 v70,2013-09-06 07:17:00,
2013-09-05 21:22:00,73.9,62.2,30.10,NNW,330,8.0,25.0,67,0.00,,,0.00,Weather View 32 v70,2013-09-06 07:22:00,
2013-09-05 21:27:00,73.9,62.2,30.10,NW,320,4.0,25.0,67,0.00,,,0.00,Weather View 32 v70,2013-09-06 07:27:00,
2013-09-05 21:32:00,74.1,62.0,30.11,NW,312,2.0,25.0,66,0.00,,,0.00,Weather View 32 v70,2013-09-06 07:32:00,
2013-09-05 21:37:00,74.1,62.4,30.10,NW,323,0.0,21.0,67,0.00,,,0.00,Weather View 32 v70,2013-09-06 07:37:00,
2013-09-05 21:42:00,74.1,61.5,30.11,SSW,209,0.0,21.0,65,0.00,,,0.00,Weather View 32 v70,2013-09-06 07:42:00,
2013-09-05 21:47:00,74.1,62.4,30.11,North,0,0.0,21.0,67,0.00,,,0.00,Weather View 32 v70,2013-09-06 07:47:00,
2013-09-05 21:52:00,73.9,62.2,30.11,WNW,299,0.0,16.0,67,0.00,,,0.00,Weather View 32 v70,2013-09-06 07:52:00,
2013-09-05 21:57:00,73.9,62.2,30.11,SSW,207,1.0,16.0,67,0.00,,,0.00,Weather View 32 v70,2013-09-06 07:57:00,
2013-09-05 22:02:00,74.0,62.7,30.11,South,184,2.0,16.0,68,0.00,,,0.00,Weather View 32 v70,2013-09-06 08:02:00,
2013-09-05 22:07:00,73.7,62.9,30.11,NNW,332,0.0,16.0,69,0.00,,,0.00,Weather View 32 v70,2013-09-06 08:07:00,
2013-09-05 22:12:00,73.6,63.2,30.11,West,268,1.0,16.0,70,0.00,,,0.00,Weather View 32 v70,2013-09-06 08:12:00,
2013-09-05 22:17:00,73.6,63.2,30.11,SW,220,1.0,15.0,70,0.00,,,0.00,Weather View 32 v70,2013-09-06 08:17:00,
2013-09-05 22:22:00,73.7,63.3,30.11,SW,220,1.0,13.0,70,0.00,,,0.00,Weather View 32 v70,2013-09-06 08:22:00,
2013-09-05 22:27:00,73.8,63.0,30.11,NW,316,0.0,8.0,69,0.00,,,0.00,Weather View 32 v70,2013-09-06 08:27:00,
2013-09-05 22:32:00,73.7,62.9,30.11,NW,314,3.0,8.0,69,0.00,,,0.00,Weather View 32 v70,2013-09-06 08:32:00,
2013-09-05 22:38:00,73.7,62.0,30.11,NNE,29,5.0,5.0,67,0.00,,,0.00,Weather View 32 v70,2013-09-06 08:38:00,
2013-09-05 22:43:00,73.6,62.3,30.11,NNE,29,1.0,5.0,68,0.00,,,0.00,Weather View 32 v70,2013-09-06 08:43:00,
2013-09-05 22:48:00,73.4,62.2,30.10,NNW,328,5.0,5.0,68,0.00,,,0.00,Weather View 32 v70,2013-09-06 08:48:00,
2013-09-05 22:53:00,73.1,62.7,30.10,NNW,333,7.0,13.0,70,0.00,,,0.00,Weather View 32 v70,2013-09-06 08:53:00,
2013-09-05 22:58:00,73.1,62.7,30.10,North,360,1.0,13.0,70,0.00,,,0.00,Weather View 32 v70,2013-09-06 08:58:00,
2013-09-05 23:03:00,72.9,62.1,30.10,NW,317,6.0,13.0,69,0.00,,,0.00,Weather View 32 v70,2013-09-06 09:03:00,
2013-09-05 23:08:00,73.1,61.9,30.11,NW,304,3.0,13.0,68,0.00,,,0.00,Weather View 32 v70,2013-09-06 09:08:00,
2013-09-05 23:13:00,73.1,61.9,30.11,NW,307,2.0,13.0,68,0.00,,,0.00,Weather View 32 v70,2013-09-06 09:13:00,
2013-09-05 23:18:00,73.1,61.5,30.10,NNW,328,0.0,13.0,67,0.00,,,0.00,Weather View 32 v70,2013-09-06 09:18:00,
2013-09-05 23:23:00,73.0,61.4,30.10,NNW,329,2.0,13.0,67,0.00,,,0.00,Weather View 32 v70,2013-09-06 09:23:00,
2013-09-05 23:28:00,73.0,61.4,30.10,NNW,329,0.0,13.0,67,0.00,,,0.00,Weather View 32 v70,2013-09-06 09:28:00,
2013-09-05 23:33:00,73.1,61.5,30.09,WSW,243,3.0,13.0,67,0.00,,,0.00,Weather View 32 v70,2013-09-06 09:33:00,
2013-09-05 23:38:00,73.4,60.0,30.09,North,0,0.0,13.0,63,0.00,,,0.00,Weather View 32 v70,2013-09-06 09:38:00,
2013-09-05 23:43:00,74.1,59.7,30.09,East,80,2.0,13.0,61,0.00,,,0.00,Weather View 32 v70,2013-09-06 09:43:00,
2013-09-05 23:48:00,74.1,59.7,30.09,North,353,4.0,13.0,61,0.00,,,0.00,Weather View 32 v70,2013-09-06 09:48:00,
2013-09-05 23:53:00,74.1,59.7,30.09,NNE,14,1.0,10.0,61,0.00,,,0.00,Weather View 32 v70,2013-09-06 09:53:00,
2013-09-05 23:58:00,74.0,60.1,30.09,South,186,1.0,9.0,62,0.00,,,0.00,Weather View 32 v70,2013-09-06 09:58:00,